• Processing (Info)

  • MPEC 2019-F09 : 2014 QO434

    The following Minor Planet Electronic Circular may be linked-to from your own Web pages, but must not otherwise be redistributed electronically.

    A form allowing access to any MPEC is at the bottom of this page.


    Read MPEC 2019-F08 Read MPEC 2019-F10


    M.P.E.C. 2019-F09                                Issued 2019 Mar. 17, 17:11 UT
    
         The Minor Planet Electronic Circulars contain information on unusual
             minor planets and routine data on comets.  They are published
        on behalf of Division F of the International Astronomical Union by the
              Minor Planet Center, Smithsonian Astrophysical Observatory,
                              Cambridge, MA 02138, U.S.A.
    
                 Prepared using the Tamkin Foundation Computer Network
    
                                  MPC@CFA.HARVARD.EDU
                URL https://www.minorplanetcenter.net/    ISSN 1523-6714
    
                                      2014 QO434
    
                               Revision to MPEC 2014-R81
    
    Additional Observations:
         K14Qh4O  C2018 06 15.57377621 54 35.129-20 08 38.60         23.5 GVEF009F51
         K14Qh4O  C2018 06 15.58434021 54 35.008-20 08 36.88         22.9 GVEF009F51
         K14Qh4O  C2018 06 15.59489921 54 34.873-20 08 35.32         23.6 GVEF009F51
         K14Qh4O  C2018 06 17.57227921 54 11.475-20 04 02.36         22.1 GVEF009F51
         K14Qh4O  C2018 06 17.58217221 54 11.312-20 04 00.59         22.6 GVEF009F51
         K14Qh4O  C2018 06 17.59206121 54 11.138-20 03 59.35         22.7 GVEF009F51
         K14Qh4O  C2018 06 17.60196321 54 10.949-20 03 58.21         23.3 GVEF009F51
         K14Qh4O  C2018 06 19.56943821 53 35.651-19 59 58.89         22.5 GVEF009F51
         K14Qh4O  C2018 06 19.57979721 53 35.437-19 59 57.77         22.8 GVEF009F51
         K14Qh4O  C2018 06 19.60049721 53 34.875-19 59 54.59         22.6 GVEF009F51
         K14Qh4O  C2018 07 08.52394321 36 28.928-19 46 33.94         21.9 GVEF009F51
         K14Qh4O  C2018 07 08.53389521 36 27.983-19 46 34.01         22.4 GVEF009F51
         K14Qh4O  C2018 07 08.54386121 36 27.023-19 46 34.29         22.3 GVEF009F51
         K14Qh4O  C2018 08 08.36421420 26 02.842-19 33 06.38         21.3 GVEF009F51
         K14Qh4O  C2018 08 08.38363320 25 59.670-19 33 03.19         21.2 GVEF009F51
         K14Qh4O  C2018 08 08.39335920 25 58.068-19 33 01.59         21.0 GVEF009F51
    
    Observer details:
    F51 Pan-STARRS 1, Haleakala.  Observers J. Bulger, K. Chambers, T. Lowe,
        E. Magnier, A. Schultz, M. Willman.  Measurers S. Chastel, M. Huber,
        Y. Ramanjooloo, R. Wainscoat, R. Weryk.  1.8-m Ritchey-Chretien + CCD.
    
    Orbital elements:
    2014 QO434                                               Earth MOID = 0.2116 AU
    Epoch 2019 Apr. 27.0 TT = JDT 2458600.5                 MPC
    M  50.72862              (2000.0)            P               Q
    n   0.72820391     Peri.  161.66920     -0.39869749     -0.90087814
    a   1.2235847      Node   311.43691     +0.81016798     -0.25829589
    e   0.4424662      Incl.   13.23491     +0.42973033     -0.34885786
    P   1.35           H   20.7           G   0.15           U   3
    Residuals in seconds of arc
    140725 F51  0.0   0.1-    140830 G96  0.3-  0.2+    180615 F51  0.1-  0.3-
    140728 F51  0.2-  0.0     140830 G96  0.3-  0.1-    180615 F51  0.1+  0.1-
    140728 F51  0.0   0.0     140901 G96  0.4-  0.1+    180615 F51  0.0   0.1-
    140728 F51  0.0   0.1+    140901 G96  0.1-  0.3+    180617 F51  0.2-  0.3-
    140728 F51  0.3+  0.1+    140901 G96  0.0   0.0     180617 F51  0.1+  0.2+
    140814 F51  0.0   0.0     140901 G96  0.2-  0.4+    180617 F51  0.2+  0.2+
    140814 F51  0.1-  0.0     140901 G96  0.1+  0.3+    180617 F51  0.1+  0.1+
    140814 F51  0.2+  0.4-    140901 G96  0.4+  0.3+    180619 F51  0.1-  0.0
    140814 F51  0.0   0.1-    140901 G96  0.0   0.3+    180619 F51  0.5+  0.0
    140815 F51  0.0   0.3-    140903 291  0.4-  0.1+    180619 F51  0.2-  0.9+
    140815 F51  0.1-  0.1-    140903 291  0.1+  0.2+    180708 F51  0.0   0.1-
    140815 F51  0.0   0.1-    140903 291  0.4-  0.3-    180708 F51  0.1-  0.0
    140830 G96  0.1+  0.2+    140903 G96  0.2+  0.3-    180708 F51  0.3-  0.1-
    140830 G96  0.4+  0.3+    140903 G96  0.6+  0.1+    180808 F51  0.1+  0.1-
    140830 G96  0.1-  0.5-    140903 G96  0.0   0.2-    180808 F51  0.0   0.0
    140830 G96  0.3-  0.0     140911 291  0.5+  0.3+    180808 F51  0.2-  0.1+
    140830 G96  0.4+  0.3+    140911 291  0.2+  0.5+
    140830 G96  0.0   0.1-    140911 291  0.1-  0.1+
    
    Ephemeris:
    2014 QO434               a,e,i = 1.22, 0.44, 13                  q = 0.6822
    Date    TT    R. A. (2000) Decl.     Delta      r     Elong.  Phase     V
    2019 02 15    00 20 13.1 +08 14 14   0.5830  0.6824    42.5   102.3    22.4
    ...
    2019 03 02    01 09 54.4 +03 16 52   0.4071  0.7076    36.7   123.2    23.1
    ...
    2019 03 10    01 36 03.7 -03 17 08   0.3304  0.7432    34.2   131.3    23.5
    ...
    2019 03 16    01 56 17.5 -10 28 03   0.2844  0.7774    34.6   133.4    23.5
    2019 03 17    01 59 47.4 -11 51 33   0.2777  0.7836    35.0   133.3    23.4
    2019 03 18    02 03 20.4 -13 18 17   0.2715  0.7899    35.5   133.0    23.4
    ...
    2019 03 24    02 26 13.1 -23 00 32   0.2406  0.8301    40.9   128.1    22.7
    ...
    2019 04 01    03 04 21.3 -37 42 12   0.2177  0.8879    53.8   114.8    21.6
    ...
    2019 04 16    05 16 20.6 -61 28 58   0.2222  1.0021    83.3    84.0    20.4
    
    A. U. Tomatic                (C) Copyright 2019 MPC           M.P.E.C. 2019-F09
    

    Read MPEC 2019-F08 Read MPEC 2019-F10


    MPEC number:

    Enter an MPEC number in one of the following forms:

    • 1997-B01 (the full form)
    • J97B01 (the packed version of the full form)
    • B01 (the abbreviated form)